CAPE
0 0 0 0 0 0 0 0 0 0 0 0 0 0 0 0 0 0 0 0 0 0 0 0 0 0 0 0 0 0 27 0 2238 2534 2606 2857 2597 2531 2605 2311 2041 1849 2079 1925
0 0 0 0 0 0 0 0 0 0 0 0 0 0 0 0 0 0 0 0 0 0 0 0 0 0 0 0 0 0 0 211 1224 2664 2900 2954 3009 2977 2731 2632 2228 2157 2319 2390
0 0 0 0 0 0 0 0 0 0 0 0 0 0 0 0 0 0 0 0 0 0 0 0 0 0 0 0 0 0 0 38 400 2411 2656 3152 3307 2947 2633 2604 2725 2747 2603 2468
0 0 0 0 0 0 0 0 0 0 0 0 0 0 0 0 0 0 0 0 0 0 0 0 0 0 0 0 0 0 0 1 208 618 2065 2327 2521 2723 2630 2673 2579 2657 2715 2489
0 0 0 0 0 0 0 0 0 0 0 0 0 0 0 0 0 0 0 0 0 0 0 0 0 0 0 0 0 0 0 0 62 587 1350 2157 2316 2512 2578 2874 2650 2752 2773 2644
0 0 0 0 0 0 0 0 0 0 0 0 0 1 1 0 0 0 0 0 0 0 0 0 1 4 7 8 8 2 0 0 58 407 907 1965 2075 2377 2515 2549 2500 2758 2739 3016
0 0 0 0 0 0 0 0 0 2 4 0 0 0 0 0 0 0 0 0 9 17 3 4 24 29 31 57 59 12 0 16 24 176 967 1609 2207 2515 2840 2335 2162 2699 2895 2851
0 1 3 0 0 0 1 9 17 7 7 5 0 0 0 0 0 0 11 37 33 36 40 40 56 72 76 108 103 70 37 72 169 103 627 1711 2064 2621 2727 2829 2349 2621 2568 2540
0 0 0 0 0 0 0 0 0 3 5 0 0 0 0 0 1 7 10 23 34 39 46 54 48 67 92 66 123 91 117 102 312 349 539 1694 1985 1922 2241 2541 2412 2766 2476 1909
0 1 1 0 0 0 0 0 1 5 1 0 0 0 0 4 0 0 2 21 22 14 40 75 74 85 87 71 50 49 108 214 257 532 556 919 1918 2248 2273 2392 2018 1659 1799 1804
0 2 0 0 0 0 1 0 0 0 7 6 2 0 0 0 0 2 11 30 35 41 39 54 105 108 85 60 53 15 69 230 242 443 660 967 1442 1740 1796 1706 992 1003 1868 2476
4 8 7 1 1 0 0 0 0 5 7 6 13 0 5 0 0 7 13 30 37 24 24 44 77 81 63 41 20 5 0 57 162 226 416 815 1038 1162 1140 1094 6 670 1415 1808
6 8 7 5 0 2 0 0 0 1 7 2 13 2 11 11 13 12 28 45 26 48 44 35 47 56 42 30 12 7 1 1 0 93 116 137 688 920 938 698 643 612 835 1006
0 12 15 8 0 20 14 3 1 12 8 16 13 20 18 11 14 12 18 40 25 37 49 53 41 30 18 14 8 2 1 0 1 0 29 93 130 563 793 882 747 656 654 658
1 11 15 14 20 3 8 0 5 6 6 9 1 5 2 6 14 33 44 47 28 23 27 23 21 21 23 29 23 17 12 5 1 2 2 1 77 58 360 787 822 668 528 395
4 7 7 2 9 4 1 0 0 1 4 8 5 0 7 26 26 33 10 2 7 1 0 3 14 10 9 14 4 3 4 0 15 14 4 1 0 28 2 57 571 976 799 567
17 27 16 3 0 7 0 1 3 0 4 17 19 25 13 20 17 0 0 0 0 0 1 0 0 0 1 6 3 8 11 2 10 0 17 7 0 0 5 0 19 641 1149 1175
14 14 18 18 5 3 0 23 1 6 0 6 24 34 30 7 2 0 0 0 0 0 1 4 12 7 14 16 18 6 9 0 12 1 0 4 16 2 0 0 0 66 531 958
21 17 4 6 3 1 2 12 19 6 4 3 24 7 0 0 0 0 0 0 0 6 12 14 10 18 13 12 16 27 10 17 0 0 1 0 3 9 13 0 0 12 12 481
4 41 19 5 23 10 26 7 0 0 0 11 2 0 0 0 0 0 0 0 3 15 17 19 21 18 17 18 20 19 13 14 10 1 0 0 0 0 0 9 0 0 26 17
10 17 1 11 13 12 29 6 5 1 27 1 0 0 0 0 2 0 0 0 11 4 13 17 19 17 15 13 8 9 6 4 9 7 4 3 2 1 0 0 28 0 0 0
7 7 7 6 12 8 7 15 7 10 0 0 0 0 0 0 0 0 1 0 2 9 12 14 12 11 8 6 3 3 3 3 6 7 4 4 4 0 0 1 0 14 1 0
10 12 23 12 22 62 63 38 14 0 4 1 0 1 1 0 0 1 0 0 6 9 11 9 7 4 3 6 6 5 2 3 5 5 4 5 6 14 3 1 0 1 43 0
4 37 28 17 35 26 20 31 6 13 3 0 0 0 0 5 1 3 0 0 5 7 5 4 7 6 4 3 2 2 2 1 3 3 2 3 3 5 10 3 0 2 22 33
1 18 8 13 24 31 48 17 11 2 0 0 0 0 1 3 4 1 0 3 6 5 4 5 6 4 4 3 2 1 2 1 2 3 3 5 3 4 3 3 3 0 15 28
5 5 16 21 19 18 31 14 4 0 0 0 0 0 0 4 3 0 3 4 4 3 4 4 4 3 3 2 2 1 1 0 2 6 4 3 5 3 4 5 3 0 0 0
CIN
0 0 0 0 0 0 0 0 0 0 0 0 0 0 0 0 0 0 0 0 0 0 0 0 0 0 0 0 0 0 -213 0 -7 -1 -1 -8 -30 -23 -21 -27 -19 -25 -57 -77
0 0 0 0 0 0 0 0 0 0 0 0 0 0 0 0 0 0 0 0 0 0 0 0 0 0 0 0 0 0 0 -165 -81 -6 -2 -7 -16 -1 -4 -4 -17 -20 -21 -35
0 0 0 0 0 0 0 0 0 0 0 0 0 0 0 0 0 0 0 0 0 0 0 0 0 0 0 0 0 0 0 -120 -145 -2 -0 -1 -0 -1 -2 -4 -3 -7 -22 -26
0 0 0 0 0 0 0 0 0 0 0 0 0 0 0 0 0 0 0 0 0 0 0 0 0 0 0 0 0 0 0 -16 -136 -127 -5 -1 -1 -0 -18 -25 -16 -18 -15 -22
0 0 0 0 0 0 0 0 0 0 0 0 0 0 0 -0 0 0 0 0 0 0 0 0 0 0 0 0 0 0 0 0 -138 -84 -25 -1 -7 -1 -1 -0 -2 -8 -27 -43
0 0 0 0 0 0 0 0 0 0 0 0 0 -2 -7 -5 0 0 0 0 0 0 0 -0 -1 -4 -5 -5 -5 -3 0 0 -81 -74 -69 -3 -6 -10 -2 -2 0 -1 -2 -22
0 0 0 0 0 0 0 0 0 -3 -18 0 0 0 0 0 0 0 0 -0 -3 -4 -2 -3 -5 -4 -3 -5 -3 -5 0 -52 -81 -61 -44 -14 -5 -6 -4 -8 -7 -2 -1 -1
0 -2 -15 0 0 0 -0 -6 -7 -6 -7 -10 0 0 0 0 0 0 -2 -6 -3 -3 -3 -3 -2 -1 -2 -5 -3 -3 -17 -55 -71 -73 -29 -3 -1 -4 -6 -6 -7 -2 -1 -3
0 -0 0 0 0 0 0 -1 0 -3 -3 0 0 0 0 0 -1 -9 -5 -2 -2 -2 -5 -7 -2 -4 -2 -3 -4 -2 -5 -55 -37 -75 -48 -1 -11 -8 -10 -11 -20 -4 -7 0
0 -3 -3 0 0 0 0 0 -1 -2 -3 -2 0 0 0 -6 -4 0 -7 -3 -4 -8 -7 -4 -3 -4 -6 -20 -17 -22 -32 -22 -40 -45 -63 -12 -1 -8 -8 -9 -8 -40 -21 -5
0 -1 0 0 0 0 -6 -0 0 0 -3 -2 -1 0 0 0 0 -4 -3 -5 -4 -4 -7 -4 -4 -9 -18 -18 -37 -77 -27 -24 -16 -17 -32 -7 -2 -3 -13 -10 -41 -7 -8 -8
-5 -2 -3 -5 -3 0 0 0 -3 -9 -2 -5 -3 -1 -9 0 -1 -4 -4 -3 -7 -6 -6 -5 -6 -6 -24 -29 -11 -3 -3 -55 -22 -21 -31 -3 -8 -7 -14 -4 -7 -6 -19 -56
-2 -3 -2 -3 0 -7 0 0 0 -1 -2 -2 -2 -3 -9 -6 -6 -5 -9 -5 -4 -4 -6 -4 -6 -20 -4 -6 -8 -4 -3 -3 0 -56 -63 -128 -7 -7 -15 -2 -2 -4 -29 -62
0 -2 -2 -3 0 -3 -3 -2 -2 -3 -5 -6 -6 -9 -7 -9 -8 -6 -7 -5 -4 -7 -4 -7 -5 -5 -3 -4 -5 -4 -3 -2 -3 -1 -52 -74 -81 -7 -3 -1 -4 -5 -50 -76
-2 -2 -3 -3 -3 -5 -7 -6 -3 -5 -6 -5 -4 -7 -6 -6 -10 -4 -3 -5 -5 -7 -6 -7 -7 -6 -6 -5 -5 -6 -4 -3 -2 -3 -3 -16 -29 -101 -34 -2 -2 -9 -37 -75
-4 -2 -2 -2 -3 -5 -6 -5 -2 -3 -4 -4 -3 -2 -10 -6 -8 -6 -9 -2 -4 -3 0 -7 -6 -3 -2 -3 -8 -7 -5 -1 -3 -3 -2 -2 0 -34 -100 -96 -11 -1 -3 -21
-1 -0 -2 -1 -1 -8 -1 -0 -2 0 -7 -7 -4 -3 -8 -8 -8 0 0 0 0 -1 -3 -2 0 0 -16 -5 -8 -2 -2 -8 -7 0 -4 -2 0 0 -47 0 -39 -2 -2 -1
-0 -1 -2 -2 -5 -3 0 -5 -6 -15 0 -7 -4 -5 -6 -5 -3 0 0 0 0 0 -1 -2 -0 0 0 0 -0 -0 -0 -1 -2 -4 -8 -7 -5 -2 0 -17 0 -17 -9 -9
-2 -2 -3 -3 -4 -4 -3 -8 -2 -1 -0 -6 -4 -5 -1 0 0 0 0 0 0 -0 0 -0 -0 0 0 0 0 0 0 -0 0 0 0 -0 -16 -18 -2 0 0 -2 -13 -3
-13 -5 -7 -3 -1 -1 -5 -32 0 0 0 -2 -2 0 0 0 0 0 0 0 -1 0 0 0 0 0 0 0 0 0 -0 0 0 0 0 0 0 0 0 -8 0 0 -29 -8
-6 -2 -2 -3 -2 -3 -2 -15 -42 -0 -11 -1 0 0 0 0 -2 -1 0 0 0 0 0 0 0 0 0 0 0 0 0 0 0 0 0 -0 -6 -1 0 0 -2 0 0 0
-1 -1 -1 -2 -1 -2 -2 -5 -2 -4 -1 0 0 0 -1 0 0 0 -0 0 -0 0 0 0 0 0 0 0 0 0 0 0 0 0 0 0 -0 0 0 0 0 -8 -7 0
-1 -1 -0 -1 -1 -1 -0 -0 -1 -1 -1 -1 0 -2 -1 -1 -2 -2 -0 -0 0 0 0 0 0 0 0 0 0 0 0 0 0 0 0 0 0 -0 -0 0 0 -6 -2 0
-3 -1 -1 -1 -4 -6 -4 -1 -1 -1 -1 0 -1 -0 -0 -1 -1 -1 0 -0 0 0 0 0 0 0 0 0 0 0 0 0 0 0 0 0 0 0 0 0 0 -1 -2 0
-5 -1 -2 -2 -4 -3 -2 -1 -1 -2 -1 0 0 0 -1 -1 -1 -0 0 0 0 0 0 0 0 0 0 0 0 0 0 -1 0 0 0 0 0 0 0 0 0 0 -9 -0
-4 -5 -2 -1 -2 -1 -1 -2 -2 -1 0 0 0 0 -0 -1 -1 -0 0 0 0 0 0 0 0 0 0 0 0 -0 -0 -1 -0 0 0 0 0 0 0 0 0 0 0 0
Wind_Speed
13 18 20 21 19 27 26 27 26 23 20 28 32 33 32 31 31 31 30 31 31 28 26 27 27 28 31 30 30 30 31 32 29 27 27 26 26 25 24 24 22 21 19 18
18 25 27 23 23 24 26 27 28 27 25 28 31 34 34 33 33 32 31 31 31 31 31 30 30 31 31 32 33 33 33 33 30 30 30 29 28 26 25 23 25 24 21 20
27 16 16 22 21 24 23 28 29 29 28 31 35 39 29 24 24 23 23 25 28 30 32 34 34 34 33 34 36 36 35 34 35 32 32 31 31 30 29 29 26 24 24 23
25 26 15 16 21 19 26 22 26 27 30 37 32 44 37 32 26 25 26 29 30 31 32 34 35 35 34 35 34 36 37 38 37 35 36 35 34 34 32 29 27 26 24 25
22 18 19 20 22 22 26 29 28 30 35 39 34 37 34 31 27 23 24 30 33 35 34 33 33 35 36 37 37 38 39 39 38 38 40 39 39 36 34 30 29 28 25 25
31 19 21 25 25 24 27 31 33 35 35 41 36 33 29 21 26 28 28 34 31 33 32 31 31 29 31 34 36 38 40 41 41 39 40 41 43 39 37 35 33 29 27 25
24 27 25 20 28 28 23 31 36 34 29 31 21 28 29 33 26 26 30 30 31 31 33 32 32 35 35 36 37 38 39 42 42 41 41 42 42 44 42 41 35 30 28 27
27 24 24 20 24 31 32 30 30 35 35 38 38 34 24 19 20 20 24 25 29 31 32 33 32 33 35 35 35 37 38 40 42 43 41 40 43 42 45 44 43 42 30 25
25 28 21 23 24 24 26 23 25 31 33 35 28 23 17 16 20 18 22 28 28 31 33 33 33 33 33 35 37 37 39 40 39 40 41 39 41 43 43 45 46 41 36 36
21 33 25 21 21 24 26 29 26 21 28 29 23 28 26 21 23 27 31 29 27 31 31 31 32 33 35 36 36 36 37 37 39 38 40 42 39 42 43 44 44 42 43 29
20 23 27 20 23 28 19 21 19 23 21 25 30 21 22 29 30 30 30 28 32 35 31 28 32 36 35 38 36 36 37 37 37 36 36 38 41 39 43 45 50 44 19 19
18 24 28 28 27 23 24 28 23 18 23 20 23 29 27 21 22 21 27 29 33 32 31 27 28 36 38 39 39 37 37 35 35 34 33 35 36 38 42 32 34 46 10 14
15 18 29 28 22 18 24 22 19 21 21 26 30 29 23 25 21 24 25 29 31 29 27 27 30 30 39 40 40 39 39 37 36 33 34 32 32 37 39 32 26 18 18 19
18 19 23 27 21 17 21 20 20 17 20 21 20 23 25 26 39 35 23 29 27 24 24 25 27 34 41 44 43 43 43 41 39 37 34 34 33 33 37 36 30 24 23 22
16 23 28 33 37 35 35 30 22 18 18 21 21 19 39 36 40 33 25 28 29 25 30 33 35 36 37 41 45 45 46 44 43 42 41 36 34 33 36 36 36 34 31 26
17 25 30 33 34 39 37 32 24 19 17 14 14 34 24 32 20 36 37 42 28 38 44 41 42 44 45 44 46 50 51 51 50 49 48 44 37 37 32 34 36 35 33 30
21 23 26 34 30 34 33 31 18 10 10 17 25 35 34 37 38 39 45 48 38 35 34 38 36 39 41 48 54 54 56 56 56 56 53 49 46 38 40 33 34 37 37 31
28 26 25 28 28 33 32 17 22 23 25 31 31 29 34 37 41 48 48 42 40 36 38 38 42 41 38 40 40 42 47 58 56 55 56 55 51 46 39 41 39 34 35 36
14 21 26 27 30 28 28 19 19 20 29 31 27 30 36 42 43 27 38 40 31 35 37 33 29 29 30 28 32 37 39 32 45 56 57 52 55 52 43 42 45 43 33 35
6 5 34 28 26 25 17 13 18 25 33 21 29 35 41 44 38 48 52 52 32 38 33 33 29 28 27 29 30 29 27 31 39 37 46 53 54 54 51 44 40 43 47 40
2 5 34 34 32 26 19 20 21 27 25 30 33 36 39 42 42 37 42 32 28 35 32 28 25 25 27 29 30 28 31 24 23 23 27 29 44 54 53 52 43 40 48 45
14 15 23 29 25 28 17 21 23 27 30 33 34 36 40 42 29 31 29 34 38 37 28 23 21 23 26 25 23 19 20 22 28 26 24 28 25 56 57 54 51 44 40 44
23 13 19 17 19 16 17 20 25 27 30 32 34 37 38 31 34 37 38 38 38 28 23 20 19 22 22 22 21 18 19 18 17 18 22 27 23 37 46 55 52 48 39 38
21 17 21 24 18 17 17 22 23 27 30 31 32 36 37 41 41 35 37 35 29 23 21 19 19 21 21 19 18 16 16 13 13 13 16 17 20 29 36 46 49 50 47 40
26 20 25 28 22 20 16 21 26 27 28 31 33 35 37 40 32 35 34 30 24 21 19 17 18 19 20 17 18 14 14 17 13 9 7 9 14 17 30 41 50 48 49 45
28 28 28 29 23 16 26 26 26 26 28 31 34 35 37 38 30 35 29 25 20 19 17 18 18 18 20 17 17 14 14 19 15 8 3 14 11 11 25 34 44 57 51 49
Wind_Direction
274 270 268 273 277 274 289 280 281 290 296 290 288 290 292 294 294 294 295 296 295 296 297 296 295 295 294 293 292 288 281 278 271 263 261 260 260 261 259 260 257 249 244 244
267 264 259 275 276 278 278 279 281 286 290 291 290 289 292 294 294 295 296 297 297 297 297 297 296 295 294 293 292 289 286 281 273 265 263 261 260 262 259 258 256 252 248 250
254 299 285 275 280 277 281 277 280 284 293 292 292 288 297 304 307 306 302 302 301 300 298 296 297 297 296 296 292 291 288 285 278 268 266 262 261 259 258 258 257 252 252 252
271 271 289 287 282 287 281 295 291 291 291 286 299 281 294 300 302 302 301 301 303 302 305 304 300 298 301 303 301 295 291 287 283 274 266 262 258 255 253 252 254 253 251 253
279 282 278 285 286 291 287 292 294 292 292 291 296 293 301 303 303 308 314 314 310 307 308 310 308 305 304 302 300 298 294 287 283 280 270 262 259 258 260 255 252 250 249 248
268 293 283 281 291 293 292 293 292 290 292 283 293 293 301 318 316 313 318 316 316 315 315 314 313 313 310 309 307 304 299 291 284 278 274 264 259 256 258 253 251 250 249 247
282 280 284 287 286 291 297 293 288 289 289 292 318 303 304 307 320 319 318 320 320 319 316 315 314 312 312 310 310 308 305 298 288 279 274 268 260 256 254 257 254 249 249 248
290 287 291 291 291 287 284 291 289 290 290 291 302 304 318 333 332 331 329 331 328 326 324 320 320 318 316 316 314 311 311 305 291 280 274 270 262 258 255 253 256 254 250 243
291 285 299 296 297 299 304 292 302 298 299 299 306 312 322 329 327 338 332 332 332 328 326 323 322 320 316 316 313 309 306 306 302 286 278 272 266 260 257 254 250 256 244 249
301 285 294 298 301 294 292 296 299 305 303 305 315 316 318 331 332 327 327 329 329 332 328 327 324 319 314 308 311 310 308 305 301 295 279 271 268 263 260 256 250 243 225 235
299 293 292 296 295 292 296 301 299 303 303 306 309 320 337 329 327 328 328 329 326 328 331 333 323 313 315 307 309 311 309 304 303 302 291 278 269 267 261 260 256 256 247 236
306 298 288 287 294 300 295 292 298 294 306 309 306 310 322 337 333 331 332 330 328 328 330 333 330 316 312 306 304 307 307 308 303 305 299 286 277 268 262 267 262 257 263 232
317 302 287 293 292 295 296 296 297 301 306 304 307 314 326 326 332 336 335 333 331 331 330 330 328 325 310 307 305 304 303 303 303 302 296 292 282 269 264 263 264 255 253 250
314 300 291 284 304 303 299 303 300 302 302 308 308 315 327 327 302 322 332 332 331 329 327 326 324 320 312 305 301 298 296 297 298 293 294 290 285 275 264 263 264 258 254 253
305 294 289 283 277 282 285 292 299 296 301 304 314 315 277 276 293 321 338 335 333 327 325 322 319 317 315 309 301 297 294 294 292 287 284 284 282 276 269 264 262 261 262 258
300 294 288 282 278 269 278 287 297 298 300 295 256 255 249 316 343 324 330 306 325 325 320 319 317 316 313 310 304 297 291 287 286 281 276 275 277 272 271 267 263 259 257 256
293 290 289 278 278 271 280 286 301 284 291 304 303 284 289 299 318 326 314 320 326 323 324 324 320 317 313 308 300 298 291 287 281 277 274 270 268 269 264 263 264 258 255 252
272 280 283 280 278 270 281 312 306 307 310 269 263 267 304 311 296 297 316 329 331 329 325 322 322 318 313 310 306 302 296 284 280 277 271 267 266 263 263 255 259 262 257 253
193 277 278 277 269 277 279 308 313 324 282 277 296 300 298 297 291 283 336 336 331 330 328 314 300 295 292 298 311 307 303 291 290 278 268 267 263 262 260 257 249 255 256 255
192 270 249 262 273 279 308 319 326 319 270 301 296 294 300 304 287 314 317 305 333 333 329 294 294 311 310 318 318 313 304 301 294 291 277 266 261 258 258 256 248 244 247 249
340 287 227 245 256 278 303 317 327 293 284 287 292 293 298 300 327 291 295 298 327 299 300 306 312 314 322 327 324 315 312 298 292 289 285 276 263 256 254 254 253 245 243 243
296 284 267 250 273 276 317 314 309 297 289 290 290 294 298 300 289 293 299 302 303 304 308 317 316 329 334 332 328 307 291 302 302 291 281 277 258 255 251 251 250 250 245 238
273 281 286 292 295 319 326 323 322 309 290 290 293 300 300 289 293 299 302 305 306 310 321 330 330 333 339 344 341 321 315 312 298 274 278 277 266 264 253 245 243 244 241 239
294 300 288 284 312 327 334 328 319 292 290 291 295 301 299 303 302 302 305 308 310 318 325 334 339 348 347 351 349 336 334 320 322 283 250 244 257 263 256 243 241 239 238 236
277 295 279 269 308 326 344 324 291 284 290 295 302 304 302 307 301 305 307 309 316 322 333 345 350 352 354 355 358 352 357 6 358 341 277 250 236 246 254 245 236 238 238 238
271 270 271 275 308 338 296 292 285 287 291 300 306 303 308 309 304 308 310 312 320 329 339 353 356 0 4 3 8 13 14 22 19 3 322 203 186 217 247 243 236 232 236 238